Regional Weather Roundup
Issued by NWS

Home | Current Version | Previous Version | Text Only | Print | Product List | Glossary On
Versions: 1 2 3 4 5 6 7 8 9 10 11 12 13 14 15 16 17 18 19 20 21 22 23 24 25 26 27 28 29 30 31 32 33 34 35 36 37 38 39 40 41 42 43 44 45 46 47 48 49 50
000
ASUS43 KLSX 302007
RWRMO

WEATHER SUMMARY FOR MISSOURI
NATIONAL WEATHER SERVICE SPRINGFIELD MO
300 PM CDT MON MAR 30 2015

NOTE: "FAIR" INDICATES FEW OR NO CLOUDS BELOW 12,000 FEET WITH NO
       SIGNIFICANT WEATHER AND/OR OBSTRUCTIONS TO VISIBILITY.
       CURRENT SKY AND/OR WEATHER CONDITIONS ARE NOT AVAILABLE FOR
       CHILLICOTHE AND FARMINGTON.

MOZ001>031-035>038-043-044-053-054-302100-
...NORTHERN AND WESTERN MISSOURI...

CITY           SKY/WX    TMP DP  RH WIND       PRES   REMARKS
KANSAS CTY INT FAIR      71  30  21 SW13      30.05F
KANSAS C DTWN  FAIR      73  28  18 SW13      30.04F
LEE`S SUMMIT   FAIR      71  29  21 SW16      30.06F
ST JOSEPH      FAIR      73  29  19 SW14      30.02F
CHILLICOTHE      N/A     71  33  24 SW12G21   30.04F
KIRKSVILLE     FAIR      69  31  24 SW17G24   30.05F

$$
MOZ066>068-077>081-088>096-101>105-302100-
...SOUTHWEST MISSOURI...

CITY           SKY/WX    TMP DP  RH WIND       PRES   REMARKS
SPRINGFIELD    FAIR      68  30  24 S12       30.13F
JOPLIN         FAIR      71  31  22 S7G16     30.12F

$$
MOZ032>034-039>042-045>050-055>058-069>072-302100-
...CENTRAL MISSOURI...

CITY           SKY/WX    TMP DP  RH WIND       PRES   REMARKS
COLUMBIA       FAIR      69  28  21 S9G20     30.08F
JEFFERSON CITY FAIR      69  26  20 S9        30.09F
ROLLA          FAIR      69  28  21 W8        30.10F
SEDALIA        FAIR      70  26  19 SW13      30.10F
WHITEMAN AFB   FAIR      70  31  23 SW15G22   30.06F
WARRENSBURG    FAIR      70  30  23 S15       30.07F
OSAGE BEACH    FAIR      70  27  19 SW16      30.11F

$$
MOZ051-052-059>065-302100-
...EAST CENTRAL MISSOURI...

CITY           SKY/WX    TMP DP  RH WIND       PRES   REMARKS
ST LOUIS INTL  FAIR      70  28  21 SW9       30.10F
SPIRIT OF STL  FAIR      68  26  20 W8        30.09F
ST CHARLES     FAIR      67  29  24 SW9G21    30.09F

$$
MOZ072>076-082>087-097>100-106>115-302100-
...SOUTH CENTRAL AND SOUTHEAST MISSOURI...

CITY           SKY/WX    TMP DP  RH WIND       PRES   REMARKS
CAPE GIRARDEAU FAIR      65  35  33 MISG      30.15F
FARMINGTON     FAIR      66  32  28 CALM      30.16F
POPLAR BLUFF   FAIR      65  36  34 S8        30.16F
WEST PLAINS    FAIR      67  30  25 S8        30.15F

$$


USA.gov is the U.S. government's official web portal to all federal, state and local government web resources and services.